RYR6MQ EGPH-LIME

Flight info

Callsign RYR6MQ
Flight time 2h 8m
Altitude 37000
Route TLA Y96 NATEB DCT GODOS DCT ASBON DCT TUSUK DCT KRH DCT NATOR DCT TRA DCT RIPUS DCT GERSA DCT SOSON DCT ODINA
Aircraft B738/M-SDE3FGILRWY/SB1

Departure

Time 2026-05-07 04:44
Airport Edinburgh Airport (EGPH)

Arrival

Time 2026-05-07 06:52
Airport Il Caravaggio International Airport (LIME)
Time Latitude Longitude Altitude Speed Heading
2026-05-07 04:03 55.94971 -3.36018 115 ft 0 kts 251°
2026-05-07 04:35 55.94972 -3.36018 115 ft 0 kts 251°
2026-05-07 04:36 55.94975 -3.35998 112 ft 3 kts 251°
2026-05-07 04:36 55.94982 -3.35966 114 ft 3 kts 252°
2026-05-07 04:36 55.94985 -3.35932 111 ft 3 kts 276°
2026-05-07 04:36 55.94981 -3.35900 111 ft 3 kts 307°
2026-05-07 04:37 55.94967 -3.35876 111 ft 3 kts 328°
2026-05-07 04:37 55.94949 -3.35858 112 ft 3 kts 332°
2026-05-07 04:37 55.94936 -3.35845 111 ft 1 kts 324°
2026-05-07 04:37 55.94935 -3.35844 112 ft 0 kts 324°
2026-05-07 04:40 55.94937 -3.35847 115 ft 1 kts 324°
2026-05-07 04:40 55.94958 -3.35866 114 ft 5 kts 342°
2026-05-07 04:40 55.95001 -3.35842 113 ft 7 kts 27°
2026-05-07 04:41 55.95043 -3.35839 115 ft 6 kts 326°
2026-05-07 04:41 55.95066 -3.35903 114 ft 7 kts 298°
2026-05-07 04:41 55.95091 -3.35988 115 ft 9 kts 294°
2026-05-07 04:41 55.95111 -3.36093 115 ft 9 kts 287°
2026-05-07 04:42 55.95130 -3.36199 112 ft 9 kts 288°
2026-05-07 04:42 55.95152 -3.36299 113 ft 9 kts 303°
2026-05-07 04:42 55.95197 -3.36355 113 ft 7 kts 328°
2026-05-07 04:42 55.95245 -3.36406 111 ft 4 kts 329°
2026-05-07 04:43 55.95268 -3.36431 110 ft 3 kts 327°
2026-05-07 04:43 55.95267 -3.36462 110 ft 2 kts 240°
2026-05-07 04:43 55.95259 -3.36487 110 ft 5 kts 239°
2026-05-07 04:43 55.95162 -3.36771 110 ft 64 kts 239°
2026-05-07 04:44 55.94798 -3.37845 113 ft 136 kts 238°
2026-05-07 04:44 55.94223 -3.39557 383 ft 171 kts 239°
2026-05-07 04:44 55.93629 -3.41322 1511 ft 161 kts 236°
2026-05-07 04:44 55.93026 -3.43058 2275 ft 176 kts 233°
2026-05-07 04:45 55.92333 -3.45028 2735 ft 194 kts 234°
2026-05-07 04:45 55.91607 -3.47106 3413 ft 201 kts 236°
2026-05-07 04:45 55.90846 -3.49285 4058 ft 212 kts 237°
2026-05-07 04:45 55.90077 -3.51556 4907 ft 216 kts 239°
2026-05-07 04:46 55.89316 -3.53897 5712 ft 222 kts 239°
2026-05-07 04:46 55.88543 -3.56278 6485 ft 228 kts 237°
2026-05-07 04:46 55.87460 -3.58458 6850 ft 250 kts 209°
2026-05-07 04:46 55.85741 -3.59168 7437 ft 263 kts 176°
2026-05-07 04:47 55.84015 -3.58031 8213 ft 274 kts 143°
2026-05-07 04:47 55.82866 -3.55280 9023 ft 285 kts 117°
2026-05-07 04:47 55.81760 -3.52375 9751 ft 287 kts 144°
2026-05-07 04:47 55.79964 -3.50934 10394 ft 290 kts 170°
2026-05-07 04:48 55.77906 -3.50157 10596 ft 315 kts 170°
2026-05-07 04:48 55.75731 -3.48978 10878 ft 339 kts 156°
2026-05-07 04:48 55.73800 -3.46475 11532 ft 351 kts 136°
2026-05-07 04:48 55.72208 -3.43223 12301 ft 356 kts 132°
2026-05-07 04:49 55.70616 -3.39832 13056 ft 360 kts 132°
2026-05-07 04:49 55.69009 -3.36397 13768 ft 364 kts 132°
2026-05-07 04:49 55.67374 -3.32922 14399 ft 369 kts 132°
2026-05-07 04:49 55.65713 -3.29418 15024 ft 374 kts 132°
2026-05-07 04:50 55.64026 -3.25881 15650 ft 378 kts 132°
2026-05-07 04:50 55.62313 -3.22307 16276 ft 383 kts 133°
2026-05-07 04:50 55.60577 -3.18697 16892 ft 387 kts 133°
2026-05-07 04:50 55.58818 -3.15048 17501 ft 392 kts 133°
2026-05-07 04:51 55.57062 -3.11412 18100 ft 397 kts 133°
2026-05-07 04:51 55.55260 -3.07687 18634 ft 401 kts 133°
2026-05-07 04:51 55.53438 -3.03927 19162 ft 405 kts 133°
2026-05-07 04:51 55.51598 -3.00136 19698 ft 408 kts 133°
2026-05-07 04:52 55.49741 -2.96314 20213 ft 412 kts 133°
2026-05-07 04:52 55.47866 -2.92462 20708 ft 416 kts 133°
2026-05-07 04:52 55.45971 -2.88575 21274 ft 419 kts 133°
2026-05-07 04:52 55.44064 -2.84668 21790 ft 423 kts 133°
2026-05-07 04:53 55.42136 -2.80723 22264 ft 427 kts 133°
2026-05-07 04:53 55.40190 -2.76749 22730 ft 431 kts 133°
2026-05-07 04:53 55.38247 -2.72789 23174 ft 435 kts 133°
2026-05-07 04:53 55.36291 -2.68693 23604 ft 440 kts 129°
2026-05-07 04:54 55.34641 -2.64143 23994 ft 444 kts 120°
2026-05-07 04:54 55.33151 -2.59370 24433 ft 446 kts 120°
2026-05-07 04:54 55.31663 -2.54570 24862 ft 449 kts 120°
2026-05-07 04:54 55.30145 -2.49770 25273 ft 451 kts 120°
2026-05-07 04:55 55.28597 -2.44971 25682 ft 453 kts 121°
2026-05-07 04:55 55.27029 -2.40153 26069 ft 456 kts 121°
2026-05-07 04:55 55.25451 -2.35317 26468 ft 459 kts 121°
2026-05-07 04:55 55.23882 -2.30511 26834 ft 461 kts 121°
2026-05-07 04:56 55.22289 -2.25638 27290 ft 461 kts 121°
2026-05-07 04:56 55.20692 -2.20754 27691 ft 463 kts 121°
2026-05-07 04:56 55.19086 -2.15856 28026 ft 466 kts 121°
2026-05-07 04:56 55.17465 -2.10920 28336 ft 469 kts 121°
2026-05-07 04:57 55.15832 -2.05953 28681 ft 472 kts 121°
2026-05-07 04:57 55.14192 -2.00975 29031 ft 474 kts 121°
2026-05-07 04:57 55.12541 -1.95978 29374 ft 476 kts 121°
2026-05-07 04:57 55.10902 -1.91033 29686 ft 478 kts 121°
2026-05-07 04:58 55.09231 -1.86003 30002 ft 480 kts 121°
2026-05-07 04:58 55.07550 -1.80950 30260 ft 482 kts 121°
2026-05-07 04:58 55.05861 -1.75878 30537 ft 483 kts 121°
2026-05-07 04:58 55.04174 -1.70826 30915 ft 481 kts 121°
2026-05-07 04:59 55.02513 -1.65775 31379 ft 478 kts 120°
2026-05-07 04:59 55.00908 -1.60726 31843 ft 474 kts 119°
2026-05-07 04:59 54.99332 -1.55695 32242 ft 472 kts 118°
2026-05-07 04:59 54.97770 -1.50691 32701 ft 468 kts 118°
2026-05-07 05:00 54.96240 -1.45804 33139 ft 465 kts 118°
2026-05-07 05:00 54.94688 -1.40867 33475 ft 465 kts 118°
2026-05-07 05:00 54.93132 -1.35948 33779 ft 464 kts 118°
2026-05-07 05:00 54.91573 -1.31037 34122 ft 463 kts 118°
2026-05-07 05:01 54.90016 -1.26153 34420 ft 462 kts 118°
2026-05-07 05:01 54.88457 -1.21276 34641 ft 462 kts 118°
2026-05-07 05:01 54.86893 -1.16394 34824 ft 464 kts 118°
2026-05-07 05:01 54.85321 -1.11500 35052 ft 464 kts 118°
2026-05-07 05:02 54.83751 -1.06617 35316 ft 463 kts 118°
2026-05-07 05:02 54.82200 -1.01806 35561 ft 463 kts 118°
2026-05-07 05:02 54.80626 -0.96931 35777 ft 464 kts 118°
2026-05-07 05:02 54.79049 -0.92056 35958 ft 464 kts 118°
2026-05-07 05:03 54.77466 -0.87175 36174 ft 464 kts 118°
2026-05-07 05:03 54.75884 -0.82304 36398 ft 464 kts 118°
2026-05-07 05:03 54.74299 -0.77435 36596 ft 464 kts 118°
2026-05-07 05:03 54.72715 -0.72579 36922 ft 461 kts 118°
2026-05-07 05:04 54.71137 -0.67749 37071 ft 463 kts 118°
2026-05-07 05:04 54.69544 -0.62885 37067 ft 466 kts 118°
2026-05-07 05:04 54.66372 -0.53227 37059 ft 463 kts 118°
2026-05-07 05:05 54.63198 -0.43604 37068 ft 460 kts 118°
2026-05-07 05:05 54.60036 -0.34051 37070 ft 457 kts 119°
2026-05-07 05:06 54.56880 -0.24554 37073 ft 456 kts 119°
2026-05-07 05:06 54.53719 -0.15082 37079 ft 456 kts 119°
2026-05-07 05:07 54.50566 -0.05668 37077 ft 457 kts 119°
2026-05-07 05:07 54.47379 0.03813 37059 ft 458 kts 120°
2026-05-07 05:08 54.44176 0.13300 37074 ft 459 kts 120°
2026-05-07 05:08 54.40962 0.22784 37077 ft 460 kts 120°
2026-05-07 05:09 54.37730 0.32284 37077 ft 461 kts 120°
2026-05-07 05:09 54.34508 0.41719 37081 ft 462 kts 120°
2026-05-07 05:10 54.31254 0.51211 37075 ft 462 kts 120°
2026-05-07 05:10 54.27992 0.60691 37080 ft 462 kts 120°
2026-05-07 05:11 54.24723 0.70150 37072 ft 462 kts 120°
2026-05-07 05:11 54.21475 0.79516 37080 ft 460 kts 120°
2026-05-07 05:12 54.18208 0.88901 37072 ft 459 kts 120°
2026-05-07 05:12 54.14945 0.98237 37067 ft 457 kts 120°
2026-05-07 05:13 54.11687 1.07526 37078 ft 456 kts 120°
2026-05-07 05:13 54.08431 1.16772 37079 ft 454 kts 120°
2026-05-07 05:14 54.05199 1.25918 37071 ft 453 kts 120°
2026-05-07 05:14 54.01943 1.35095 37079 ft 453 kts 120°
2026-05-07 05:15 53.98682 1.44255 37084 ft 453 kts 121°
2026-05-07 05:15 53.95415 1.53396 37084 ft 453 kts 121°
2026-05-07 05:16 53.92140 1.62527 37082 ft 453 kts 121°
2026-05-07 05:16 53.88875 1.71598 37085 ft 454 kts 121°
2026-05-07 05:17 53.85571 1.80741 37088 ft 455 kts 121°
2026-05-07 05:17 53.82254 1.89887 37081 ft 456 kts 121°
2026-05-07 05:18 53.78926 1.99030 37082 ft 457 kts 121°
2026-05-07 05:18 53.75605 2.08123 37087 ft 458 kts 121°
2026-05-07 05:19 53.72250 2.17273 37077 ft 459 kts 121°
2026-05-07 05:19 53.68881 2.26425 37068 ft 459 kts 121°
2026-05-07 05:20 53.65503 2.35570 37083 ft 460 kts 121°
2026-05-07 05:20 53.62113 2.44714 37071 ft 460 kts 121°
2026-05-07 05:21 53.57038 2.58341 37091 ft 460 kts 121°
2026-05-07 05:22 53.53630 2.67453 37072 ft 460 kts 122°
2026-05-07 05:22 53.50216 2.76543 37070 ft 460 kts 122°
2026-05-07 05:23 53.46794 2.85624 37087 ft 460 kts 122°
2026-05-07 05:23 53.43392 2.94620 37059 ft 460 kts 122°
2026-05-07 05:24 53.39959 3.03666 37082 ft 460 kts 122°
2026-05-07 05:24 53.36522 3.12692 37069 ft 460 kts 122°
2026-05-07 05:25 53.33072 3.21717 37063 ft 460 kts 122°
2026-05-07 05:25 53.29639 3.30668 37062 ft 461 kts 122°
2026-05-07 05:26 53.26174 3.39673 37064 ft 461 kts 123°
2026-05-07 05:26 53.22238 3.48095 37086 ft 461 kts 133°
2026-05-07 05:27 53.17802 3.55809 37080 ft 461 kts 134°
2026-05-07 05:27 53.13343 3.63501 37082 ft 461 kts 134°
2026-05-07 05:28 53.08938 3.71185 37041 ft 462 kts 134°
2026-05-07 05:28 53.04520 3.78932 37052 ft 462 kts 134°
2026-05-07 05:29 53.00112 3.86654 37067 ft 462 kts 134°
2026-05-07 05:29 52.95678 3.94395 37058 ft 462 kts 134°
2026-05-07 05:30 52.91281 4.02043 37061 ft 461 kts 134°
2026-05-07 05:30 52.86853 4.09720 37028 ft 461 kts 135°
2026-05-07 05:31 52.82426 4.17373 37051 ft 460 kts 135°
2026-05-07 05:31 52.77999 4.24999 37051 ft 459 kts 135°
2026-05-07 05:32 52.73600 4.32553 37041 ft 459 kts 135°
2026-05-07 05:32 52.69173 4.40132 37039 ft 459 kts 135°
2026-05-07 05:33 52.64744 4.47693 37037 ft 458 kts 135°
2026-05-07 05:33 52.60316 4.55227 37029 ft 458 kts 135°
2026-05-07 05:34 52.55883 4.62746 37033 ft 457 kts 135°
2026-05-07 05:34 52.51480 4.70193 37041 ft 457 kts 135°
2026-05-07 05:35 52.47044 4.77672 37042 ft 457 kts 135°
2026-05-07 05:35 52.42604 4.85135 37049 ft 457 kts 135°
2026-05-07 05:36 52.38158 4.92583 37048 ft 457 kts 135°
2026-05-07 05:36 52.33705 5.00020 37039 ft 457 kts 135°
2026-05-07 05:37 52.29280 5.07389 37041 ft 457 kts 136°
2026-05-07 05:37 52.24817 5.14797 37035 ft 458 kts 136°
2026-05-07 05:38 52.20350 5.22191 37030 ft 458 kts 136°
2026-05-07 05:38 52.15877 5.29572 37024 ft 458 kts 136°
2026-05-07 05:39 52.11394 5.36948 37024 ft 458 kts 136°
2026-05-07 05:39 52.06941 5.44252 37019 ft 458 kts 136°
2026-05-07 05:40 52.02451 5.51594 37020 ft 458 kts 136°
2026-05-07 05:40 51.97958 5.58919 37023 ft 458 kts 136°
2026-05-07 05:41 51.93456 5.66237 37020 ft 458 kts 136°
2026-05-07 05:41 51.88982 5.73486 37024 ft 458 kts 136°
2026-05-07 05:42 51.84475 5.80768 37023 ft 458 kts 136°
2026-05-07 05:42 51.79965 5.88033 37017 ft 458 kts 136°
2026-05-07 05:43 51.75454 5.95278 37020 ft 458 kts 136°
2026-05-07 05:43 51.70935 6.02513 37026 ft 457 kts 136°
2026-05-07 05:44 51.66448 6.09677 37019 ft 457 kts 136°
2026-05-07 05:44 51.61927 6.16874 37021 ft 457 kts 136°
2026-05-07 05:45 51.57406 6.24049 37021 ft 457 kts 136°
2026-05-07 05:45 51.52882 6.31207 37022 ft 456 kts 136°
2026-05-07 05:46 51.48388 6.38298 37015 ft 456 kts 136°
2026-05-07 05:46 51.43860 6.45421 37013 ft 456 kts 136°
2026-05-07 05:47 51.39330 6.52527 37003 ft 456 kts 137°
2026-05-07 05:47 51.34799 6.59613 37001 ft 455 kts 137°
2026-05-07 05:48 51.30266 6.66682 36993 ft 455 kts 137°
2026-05-07 05:48 51.25760 6.73687 36996 ft 455 kts 137°
2026-05-07 05:49 51.21221 6.80725 36993 ft 455 kts 137°
2026-05-07 05:49 51.16676 6.87751 36994 ft 455 kts 137°
2026-05-07 05:50 51.12128 6.94761 36987 ft 455 kts 137°
2026-05-07 05:50 51.07573 7.01762 36989 ft 455 kts 137°
2026-05-07 05:51 51.03041 7.08708 36989 ft 456 kts 137°
2026-05-07 05:51 50.98476 7.15684 36995 ft 455 kts 137°
2026-05-07 05:52 50.93904 7.22651 36994 ft 456 kts 137°
2026-05-07 05:52 50.89332 7.29599 36995 ft 456 kts 137°
2026-05-07 05:53 50.84755 7.36535 36989 ft 455 kts 137°
2026-05-07 05:53 50.79782 7.42521 36989 ft 452 kts 154°
2026-05-07 05:54 50.74019 7.46408 36977 ft 451 kts 159°
2026-05-07 05:54 50.68215 7.50161 36963 ft 451 kts 159°
2026-05-07 05:55 50.62429 7.53956 36962 ft 451 kts 159°
2026-05-07 05:55 50.56651 7.57779 36963 ft 450 kts 158°
2026-05-07 05:56 50.50919 7.61574 36969 ft 450 kts 159°
2026-05-07 05:56 50.45145 7.65388 36964 ft 450 kts 159°
2026-05-07 05:57 50.39369 7.69191 36956 ft 450 kts 159°
2026-05-07 05:57 50.33597 7.72980 36958 ft 450 kts 159°
2026-05-07 05:58 50.27826 7.76758 36955 ft 450 kts 159°
2026-05-07 05:58 50.22093 7.80501 36959 ft 450 kts 159°
2026-05-07 05:59 50.16320 7.84261 36958 ft 449 kts 159°
2026-05-07 05:59 50.10553 7.88007 36959 ft 449 kts 159°
2026-05-07 06:00 50.04785 7.91744 36953 ft 449 kts 159°
2026-05-07 06:00 49.99017 7.95471 36962 ft 449 kts 159°
2026-05-07 06:01 49.93283 7.99167 36960 ft 449 kts 159°
2026-05-07 06:01 49.87512 8.02877 36956 ft 449 kts 159°
2026-05-07 06:02 49.81738 8.06578 36958 ft 449 kts 159°
2026-05-07 06:02 49.75957 8.10276 36959 ft 450 kts 159°
2026-05-07 06:03 49.70175 8.13964 36959 ft 450 kts 159°
2026-05-07 06:03 49.64432 8.17618 36962 ft 449 kts 159°
2026-05-07 06:04 49.58644 8.21291 36962 ft 450 kts 159°
2026-05-07 06:04 49.52861 8.24951 36965 ft 449 kts 159°
2026-05-07 06:05 49.47054 8.28617 37117 ft 453 kts 159°
2026-05-07 06:05 49.44144 8.30451 37374 ft 452 kts 159°
2026-05-07 06:05 49.41277 8.32256 37630 ft 450 kts 159°
2026-05-07 06:05 49.38382 8.34076 37873 ft 450 kts 160°
2026-05-07 06:06 49.35484 8.35895 38055 ft 450 kts 160°
2026-05-07 06:06 49.32583 8.37713 38221 ft 451 kts 160°
2026-05-07 06:06 49.29681 8.39531 38410 ft 451 kts 160°
2026-05-07 06:06 49.26777 8.41346 38613 ft 450 kts 160°
2026-05-07 06:07 49.23875 8.43159 38767 ft 450 kts 160°
2026-05-07 06:07 49.20975 8.44968 38891 ft 450 kts 160°
2026-05-07 06:07 49.18074 8.46776 38949 ft 451 kts 160°
2026-05-07 06:08 49.12286 8.50375 38964 ft 453 kts 160°
2026-05-07 06:08 49.06455 8.53994 38962 ft 452 kts 160°
2026-05-07 06:09 49.00526 8.57033 38961 ft 447 kts 174°
2026-05-07 06:09 48.94376 8.57000 38959 ft 441 kts 193°
2026-05-07 06:10 48.88431 8.55026 38970 ft 440 kts 194°
2026-05-07 06:10 48.82450 8.53003 38976 ft 441 kts 194°
2026-05-07 06:11 48.76445 8.51033 38965 ft 442 kts 193°
2026-05-07 06:11 48.70431 8.49096 38963 ft 442 kts 193°
2026-05-07 06:12 48.64419 8.47170 38971 ft 442 kts 193°
2026-05-07 06:12 48.58440 8.45259 38978 ft 442 kts 193°
2026-05-07 06:13 48.52419 8.43338 38974 ft 442 kts 193°
2026-05-07 06:13 48.46395 8.41421 38978 ft 443 kts 193°
2026-05-07 06:14 48.40367 8.39506 38981 ft 443 kts 193°
2026-05-07 06:14 48.35354 8.37917 38983 ft 443 kts 193°
2026-05-07 06:15 48.28331 8.35697 38978 ft 444 kts 193°
2026-05-07 06:15 48.22283 8.33789 38986 ft 444 kts 193°
2026-05-07 06:16 48.16168 8.32551 38985 ft 446 kts 181°
2026-05-07 06:16 48.11037 8.33398 38996 ft 448 kts 172°
2026-05-07 06:17 48.04884 8.34990 38990 ft 449 kts 172°
2026-05-07 06:17 47.98720 8.36546 38992 ft 449 kts 173°
2026-05-07 06:18 47.92594 8.38035 38989 ft 449 kts 173°
2026-05-07 06:18 47.86434 8.39513 38993 ft 448 kts 173°
2026-05-07 06:19 47.80281 8.40987 38996 ft 448 kts 173°
2026-05-07 06:19 47.74126 8.42461 39002 ft 448 kts 173°
2026-05-07 06:20 47.67974 8.43896 39008 ft 447 kts 175°
2026-05-07 06:20 47.61829 8.44864 39014 ft 447 kts 177°
2026-05-07 06:21 47.55647 8.45696 39026 ft 446 kts 177°
2026-05-07 06:21 47.49472 8.46568 39028 ft 446 kts 176°
2026-05-07 06:22 47.43290 8.47473 39030 ft 446 kts 176°
2026-05-07 06:22 47.34010 8.48835 39020 ft 447 kts 176°
2026-05-07 06:23 47.27864 8.49732 39016 ft 447 kts 176°
2026-05-07 06:23 47.21684 8.50633 39013 ft 446 kts 177°
2026-05-07 06:24 47.15516 8.51531 39018 ft 445 kts 177°
2026-05-07 06:24 47.09357 8.52425 39016 ft 445 kts 177°
2026-05-07 06:25 47.06267 8.52873 38790 ft 450 kts 177°
2026-05-07 06:25 47.03179 8.53319 38244 ft 452 kts 177°
2026-05-07 06:25 47.00060 8.53771 37671 ft 449 kts 177°
2026-05-07 06:25 46.96956 8.54219 37069 ft 448 kts 177°
2026-05-07 06:26 46.93860 8.54666 36492 ft 447 kts 177°
2026-05-07 06:26 46.90764 8.55111 35896 ft 446 kts 177°
2026-05-07 06:26 46.87672 8.55555 35241 ft 447 kts 177°
2026-05-07 06:26 46.84577 8.55999 34589 ft 448 kts 177°
2026-05-07 06:27 46.81476 8.56444 33987 ft 447 kts 177°
2026-05-07 06:27 46.78390 8.56887 33420 ft 444 kts 177°
2026-05-07 06:27 46.75333 8.57325 32947 ft 439 kts 177°
2026-05-07 06:27 46.72354 8.57752 32462 ft 434 kts 177°
2026-05-07 06:28 46.69364 8.58178 32000 ft 430 kts 176°
2026-05-07 06:28 46.66406 8.58600 31539 ft 425 kts 176°
2026-05-07 06:28 46.63477 8.59017 31097 ft 421 kts 176°
2026-05-07 06:28 46.60570 8.59431 30665 ft 418 kts 176°
2026-05-07 06:29 46.57685 8.59841 30222 ft 415 kts 176°
2026-05-07 06:29 46.54826 8.60247 29716 ft 412 kts 176°
2026-05-07 06:29 46.51983 8.60650 29227 ft 408 kts 176°
2026-05-07 06:29 46.49177 8.61048 28784 ft 403 kts 176°
2026-05-07 06:30 46.46401 8.61441 28331 ft 398 kts 176°
2026-05-07 06:30 46.43658 8.61829 27894 ft 394 kts 176°
2026-05-07 06:30 46.40976 8.62207 27451 ft 391 kts 176°
2026-05-07 06:30 46.38283 8.62587 26999 ft 388 kts 176°
2026-05-07 06:31 46.35610 8.62964 26584 ft 384 kts 176°
2026-05-07 06:31 46.32959 8.63337 26150 ft 382 kts 176°
2026-05-07 06:31 46.30321 8.63708 25718 ft 379 kts 176°
2026-05-07 06:31 46.27702 8.64076 25320 ft 377 kts 176°
2026-05-07 06:32 46.25092 8.64442 24877 ft 376 kts 176°
2026-05-07 06:32 46.22496 8.64806 24464 ft 373 kts 176°
2026-05-07 06:32 46.19921 8.65167 24052 ft 371 kts 176°
2026-05-07 06:32 46.17389 8.65521 23657 ft 370 kts 175°
2026-05-07 06:33 46.14836 8.65878 23182 ft 368 kts 175°
2026-05-07 06:33 46.12319 8.66481 22701 ft 368 kts 161°
2026-05-07 06:33 46.10121 8.68306 22346 ft 365 kts 140°
2026-05-07 06:33 46.08468 8.71056 21925 ft 364 kts 123°
2026-05-07 06:34 46.07165 8.74158 21539 ft 361 kts 121°
2026-05-07 06:34 46.05911 8.77280 21133 ft 360 kts 121°
2026-05-07 06:34 46.04667 8.80398 20731 ft 358 kts 121°
2026-05-07 06:34 46.03423 8.83494 20341 ft 356 kts 121°
2026-05-07 06:35 46.02179 8.86566 19939 ft 354 kts 122°
2026-05-07 06:35 46.00951 8.89573 19567 ft 353 kts 122°
2026-05-07 06:35 45.99709 8.92600 19179 ft 351 kts 122°
2026-05-07 06:35 45.98465 8.95621 18793 ft 350 kts 122°
2026-05-07 06:36 45.97225 8.98624 18406 ft 349 kts 122°
2026-05-07 06:36 45.95987 9.01618 17983 ft 348 kts 122°
2026-05-07 06:36 45.94753 9.04599 17559 ft 347 kts 122°
2026-05-07 06:36 45.93523 9.07565 17150 ft 345 kts 122°
2026-05-07 06:37 45.92300 9.10511 16767 ft 342 kts 122°
2026-05-07 06:37 45.91085 9.13437 16385 ft 340 kts 123°
2026-05-07 06:37 45.89891 9.16310 15999 ft 339 kts 122°
2026-05-07 06:37 45.88686 9.19204 15612 ft 337 kts 122°
2026-05-07 06:38 45.87486 9.22084 15238 ft 335 kts 122°
2026-05-07 06:38 45.86292 9.24947 14852 ft 333 kts 122°
2026-05-07 06:38 45.85105 9.27792 14480 ft 332 kts 122°
2026-05-07 06:38 45.83931 9.30601 14309 ft 324 kts 122°
2026-05-07 06:39 45.82788 9.33335 14143 ft 315 kts 122°
2026-05-07 06:39 45.81677 9.35989 14004 ft 307 kts 122°
2026-05-07 06:39 45.80578 9.38607 13670 ft 306 kts 122°
2026-05-07 06:39 45.79497 9.41182 13327 ft 305 kts 122°
2026-05-07 06:40 45.78407 9.43773 13009 ft 302 kts 122°
2026-05-07 06:40 45.77325 9.46347 12680 ft 300 kts 122°
2026-05-07 06:40 45.76251 9.48901 12374 ft 298 kts 123°
2026-05-07 06:40 45.75184 9.51435 12077 ft 296 kts 122°
2026-05-07 06:41 45.74122 9.53957 11767 ft 295 kts 122°
2026-05-07 06:41 45.73068 9.56456 11488 ft 292 kts 122°
2026-05-07 06:41 45.72019 9.58937 11198 ft 290 kts 122°
2026-05-07 06:41 45.70976 9.61405 10802 ft 292 kts 122°
2026-05-07 06:42 45.69928 9.63880 10370 ft 297 kts 122°
2026-05-07 06:42 45.68847 9.66429 9893 ft 302 kts 122°
2026-05-07 06:42 45.67748 9.69011 9352 ft 306 kts 123°
2026-05-07 06:42 45.66307 9.71214 8917 ft 303 kts 147°
2026-05-07 06:43 45.64476 9.72607 8688 ft 293 kts 157°
2026-05-07 06:43 45.62631 9.73719 8441 ft 283 kts 159°
2026-05-07 06:43 45.60838 9.74775 8205 ft 276 kts 158°
2026-05-07 06:43 45.59068 9.75841 8009 ft 277 kts 158°
2026-05-07 06:44 45.57316 9.76916 7784 ft 278 kts 158°
2026-05-07 06:44 45.55554 9.78005 7568 ft 274 kts 158°
2026-05-07 06:44 45.53877 9.79238 7299 ft 270 kts 142°
2026-05-07 06:44 45.52756 9.81318 7100 ft 264 kts 115°
2026-05-07 06:45 45.52206 9.83772 6898 ft 257 kts 105°
2026-05-07 06:45 45.51755 9.86270 6392 ft 267 kts 105°
2026-05-07 06:45 45.51286 9.88840 6049 ft 268 kts 105°
2026-05-07 06:45 45.50948 9.91463 5654 ft 269 kts 98°
2026-05-07 06:46 45.50693 9.94083 5357 ft 263 kts 98°
2026-05-07 06:46 45.50689 9.96642 5180 ft 257 kts 76°
2026-05-07 06:46 45.51490 9.98809 5038 ft 250 kts 46°
2026-05-07 06:46 45.52919 10.00088 4904 ft 241 kts 14°
2026-05-07 06:47 45.54537 10.00146 4820 ft 229 kts 347°
2026-05-07 06:47 45.56055 9.99651 4812 ft 220 kts 344°
2026-05-07 06:47 45.57538 9.99120 4694 ft 220 kts 344°
2026-05-07 06:47 45.59008 9.98583 4477 ft 215 kts 344°
2026-05-07 06:48 45.60423 9.98056 4302 ft 206 kts 343°
2026-05-07 06:48 45.61641 9.97147 4191 ft 192 kts 308°
2026-05-07 06:48 45.62177 9.95486 4057 ft 183 kts 287°
2026-05-07 06:48 45.62544 9.93759 3825 ft 179 kts 285°
2026-05-07 06:49 45.62864 9.92083 3593 ft 176 kts 284°
2026-05-07 06:49 45.63172 9.90410 3363 ft 172 kts 284°
2026-05-07 06:49 45.63473 9.88761 3143 ft 171 kts 285°
2026-05-07 06:49 45.63773 9.87115 2912 ft 172 kts 285°
2026-05-07 06:50 45.64076 9.85462 2688 ft 172 kts 285°
2026-05-07 06:50 45.64379 9.83803 2460 ft 173 kts 285°
2026-05-07 06:50 45.64684 9.82137 2228 ft 173 kts 285°
2026-05-07 06:50 45.64986 9.80490 1985 ft 167 kts 285°
2026-05-07 06:51 45.65270 9.78943 1806 ft 155 kts 285°
2026-05-07 06:51 45.65540 9.77471 1553 ft 153 kts 286°
2026-05-07 06:51 45.65804 9.76015 1353 ft 149 kts 286°
2026-05-07 06:51 45.66066 9.74579 1160 ft 150 kts 287°
2026-05-07 06:52 45.66335 9.73130 939 ft 152 kts 286°
2026-05-07 06:52 45.66601 9.71683 779 ft 146 kts 286°
2026-05-07 06:52 45.66812 9.70556 785 ft 83 kts 285°
2026-05-07 06:52 45.66880 9.70179 791 ft 22 kts 284°
2026-05-07 06:53 45.66897 9.70079 791 ft 8 kts 271°
2026-05-07 06:53 45.66861 9.70046 791 ft 6 kts 164°
2026-05-07 06:53 45.66820 9.70078 790 ft 7 kts 152°
2026-05-07 06:53 45.66773 9.70112 789 ft 8 kts 156°
2026-05-07 06:54 45.66735 9.70078 789 ft 7 kts 256°
2026-05-07 06:54 45.66743 9.70007 789 ft 7 kts 282°
2026-05-07 06:54 45.66754 9.69944 790 ft 6 kts 284°
2026-05-07 06:54 45.66764 9.69893 790 ft 5 kts 286°
2026-05-07 06:55 45.66772 9.69854 790 ft 4 kts 287°
2026-05-07 06:55 45.66782 9.69801 791 ft 8 kts 285°
2026-05-07 06:55 45.66802 9.69692 791 ft 12 kts 285°
2026-05-07 06:55 45.66821 9.69590 792 ft 8 kts 285°
2026-05-07 06:56 45.66828 9.69540 792 ft 2 kts 263°
2026-05-07 06:56 45.66819 9.69532 792 ft 2 kts 207°
2026-05-07 06:56 45.66802 9.69523 792 ft 3 kts 195°
2026-05-07 06:56 45.66779 9.69515 792 ft 3 kts 194°
2026-05-07 06:57 45.66766 9.69509 792 ft 0 kts 196°